When you browse on this site, cookies collect data to enhance your experience and personalize the content and advertising you see.
Visit our Privacy Policy to learn more. By continuing to use the site, you agree to this use of cookies and data.

Hourly Weather Coihaique

Today, 7 July, Tuesday

Time Temperature Precipitation Wind Pressure Humidity
00:00 -3°C° 0 mm 0 mps 733 mmHg 95%
01:00 -3°C° 0 mm 0 mps 733 mmHg 95%
02:00 -4°C° 0 mm 0 mps 732 mmHg 95%
03:00 -4°C° 0 mm 0 mps 732 mmHg 94%
04:00 -4°C° 0 mm 0 mps 731 mmHg 94%
05:00 -4°C° 0 mm 0 mps 731 mmHg 93%
06:00 -4°C° 0 mm 0 mps 730 mmHg 93%
07:00 -4°C° 0 mm 0 mps 730 mmHg 92%
08:00 -3°C° 0 mm 0 mps 729 mmHg 90%
09:00 -2°C° 0 mm 0 mps 729 mmHg 88%
10:00 -1°C° 0 mm 0 mps 729 mmHg 85%
11:00 0°C° 0 mm 0 mps 728 mmHg 85%
12:00 +1°C° 0 mm 0 mps 727 mmHg 85%
13:00 +2°C° 0 mm 1 mps 726 mmHg 85%
14:00 +2°C° 0 mm 1 mps 725 mmHg 88%
15:00 +1°C° 0 mm 1 mps 725 mmHg 92%
16:00 0°C° 0 mm 1 mps 724 mmHg 95%
17:00 0°C° 0.1 mm 1 mps 724 mmHg 95%
18:00 -2°C° 0.1 mm 0 mps 724 mmHg 95%
19:00 -2°C° 0.1 mm 0 mps 724 mmHg 95%
20:00 -1°C° 0.2 mm 1 mps 724 mmHg 95%
21:00 0°C° 0.2 mm 1 mps 724 mmHg 96%
22:00 0°C° 0.2 mm 1 mps 724 mmHg 96%
23:00 0°C° 0.2 mm 1 mps 724 mmHg 97%

Tomorrow, 8 July, Wednesday

Time Temperature Precipitation Wind Pressure Humidity
00:00 0°C° 0.2 mm 1 mps 724 mmHg 97%
01:00 0°C° 0.2 mm 1 mps 724 mmHg 97%
02:00 -2°C° 0.3 mm 2 mps 725 mmHg 97%
03:00 -1°C° 0.3 mm 2 mps 725 mmHg 97%
04:00 +1°C° 0.3 mm 2 mps 725 mmHg 97%
05:00 +1°C° 0.2 mm 2 mps 726 mmHg 97%
06:00 +1°C° 0.2 mm 2 mps 726 mmHg 97%
07:00 -1°C° 0.2 mm 3 mps 727 mmHg 97%
08:00 0°C° 0 mm 3 mps 727 mmHg 94%
09:00 +1°C° 0 mm 3 mps 727 mmHg 92%
10:00 0°C° 0 mm 4 mps 728 mmHg 89%
11:00 +1°C° 0 mm 4 mps 728 mmHg 86%
12:00 +1°C° 0 mm 4 mps 728 mmHg 83%
13:00 +1°C° 0 mm 4 mps 728 mmHg 80%
14:00 +2°C° 0.1 mm 3 mps 728 mmHg 85%
15:00 +1°C° 0.1 mm 3 mps 729 mmHg 89%
16:00 +1°C° 0.1 mm 2 mps 729 mmHg 94%
17:00 -1°C° 0.3 mm 2 mps 728 mmHg 94%
18:00 -1°C° 0.3 mm 2 mps 728 mmHg 95%
19:00 -1°C° 0.3 mm 2 mps 728 mmHg 96%
20:00 -1°C° 0.8 mm 2 mps 727 mmHg 96%
21:00 -1°C° 0.8 mm 2 mps 727 mmHg 96%
22:00 -1°C° 0.8 mm 2 mps 727 mmHg 97%
23:00 -1°C° 0.9 mm 2 mps 727 mmHg 97%

Day after tomorrow, 9 July, Thursday

Time Temperature Precipitation Wind Pressure Humidity
00:00 -1°C° 0.9 mm 2 mps 726 mmHg 97%
01:00 -1°C° 0.9 mm 2 mps 726 mmHg 98%
02:00 +1°C° 0.6 mm 2 mps 726 mmHg 97%
03:00 +1°C° 0.6 mm 2 mps 726 mmHg 97%
04:00 +1°C° 0.6 mm 2 mps 726 mmHg 97%
05:00 +1°C° 0 mm 2 mps 726 mmHg 97%
06:00 +1°C° 0 mm 2 mps 726 mmHg 97%
07:00 -1°C° 0 mm 2 mps 726 mmHg 97%
08:00 +1°C° 0 mm 2 mps 726 mmHg 96%
09:00 +1°C° 0 mm 2 mps 727 mmHg 95%
10:00 +2°C° 0 mm 2 mps 727 mmHg 94%
11:00 +2°C° 0 mm 2 mps 726 mmHg 92%
12:00 +2°C° 0 mm 2 mps 726 mmHg 90%
13:00 +2°C° 0 mm 2 mps 726 mmHg 89%
14:00 +1°C° 0 mm 2 mps 726 mmHg 91%
15:00 -1°C° 0 mm 2 mps 727 mmHg 93%
16:00 -1°C° 0 mm 2 mps 727 mmHg 95%
17:00 -3°C° 0 mm 2 mps 727 mmHg 95%
18:00 -4°C° 0 mm 2 mps 728 mmHg 95%
19:00 -5°C° 0 mm 2 mps 728 mmHg 95%
20:00 -5°C° 0 mm 2 mps 729 mmHg 95%
21:00 -5°C° 0 mm 2 mps 729 mmHg 96%
22:00 -5°C° 0 mm 2 mps 729 mmHg 96%
23:00 -3°C° 0.1 mm 1 mps 729 mmHg 96%

10 July, Friday

Time Temperature Precipitation Wind Pressure Humidity
00:00 -3°C° 0.1 mm 1 mps 730 mmHg 96%
01:00 -2°C° 0.1 mm 1 mps 730 mmHg 96%
02:00 -2°C° 0.1 mm 1 mps 730 mmHg 96%
03:00 -2°C° 0.1 mm 1 mps 730 mmHg 96%
04:00 -2°C° 0.1 mm 1 mps 730 mmHg 97%
05:00 -2°C° 0.2 mm 1 mps 730 mmHg 97%
06:00 -2°C° 0.2 mm 1 mps 730 mmHg 97%
07:00 -2°C° 0.2 mm 1 mps 730 mmHg 97%
08:00 -1°C° 0.1 mm 1 mps 730 mmHg 96%
09:00 0°C° 0.1 mm 1 mps 730 mmHg 95%
10:00 +1°C° 0.1 mm 1 mps 730 mmHg 94%
11:00 +2°C° 0.1 mm 1 mps 729 mmHg 92%
12:00 +2°C° 0.1 mm 2 mps 729 mmHg 91%
13:00 +2°C° 0.1 mm 2 mps 728 mmHg 90%
14:00 +1°C° 0 mm 2 mps 727 mmHg 92%
15:00 +1°C° 0 mm 1 mps 726 mmHg 94%
16:00 0°C° 0 mm 1 mps 725 mmHg 96%
17:00 -1°C° 0 mm 1 mps 724 mmHg 96%
18:00 -2°C° 0 mm 0 mps 723 mmHg 97%
19:00 -3°C° 0 mm 0 mps 722 mmHg 97%
20:00 -2°C° 0 mm 1 mps 721 mmHg 97%
21:00 -2°C° 0 mm 1 mps 719 mmHg 97%
22:00 -1°C° 0 mm 1 mps 718 mmHg 96%
23:00 -1°C° 1.2 mm 1 mps 718 mmHg 97%

11 July, Saturday

Time Temperature Precipitation Wind Pressure Humidity
00:00 -1°C° 1.2 mm 1 mps 718 mmHg 97%
01:00 -2°C° 1.2 mm 0 mps 717 mmHg 97%
02:00 -1°C° 1.2 mm 1 mps 717 mmHg 97%
03:00 -1°C° 1.2 mm 1 mps 718 mmHg 97%
04:00 0°C° 1.2 mm 1 mps 718 mmHg 97%
05:00 -3°C° 0.4 mm 2 mps 718 mmHg 97%
06:00 -3°C° 0.4 mm 2 mps 719 mmHg 97%
07:00 -3°C° 0.4 mm 2 mps 720 mmHg 97%
08:00 -2°C° 0 mm 2 mps 721 mmHg 96%
09:00 -1°C° 0 mm 3 mps 722 mmHg 95%
10:00 0°C° 0 mm 3 mps 723 mmHg 95%
11:00 0°C° 0 mm 3 mps 724 mmHg 93%
12:00 0°C° 0 mm 4 mps 724 mmHg 92%
13:00 +1°C° 0 mm 4 mps 725 mmHg 90%
14:00 +1°C° 0 mm 3 mps 726 mmHg 91%
15:00 0°C° 0 mm 3 mps 727 mmHg 92%
16:00 -1°C° 0 mm 2 mps 728 mmHg 93%
17:00 -3°C° 0 mm 2 mps 728 mmHg 93%
18:00 -4°C° 0 mm 2 mps 729 mmHg 94%
19:00 -5°C° 0 mm 2 mps 730 mmHg 95%
20:00 -5°C° 0 mm 2 mps 730 mmHg 95%
21:00 -5°C° 0 mm 2 mps 730 mmHg 96%
22:00 -5°C° 0 mm 2 mps 731 mmHg 96%
23:00 -5°C° 0.1 mm 2 mps 731 mmHg 96%

12 July, Sunday

Time Temperature Precipitation Wind Pressure Humidity
00:00 -5°C° 0.1 mm 2 mps 731 mmHg 96%
01:00 -5°C° 0.1 mm 2 mps 731 mmHg 97%
02:00 -5°C° 0.1 mm 2 mps 730 mmHg 97%
03:00 -5°C° 0.1 mm 2 mps 730 mmHg 97%
04:00 -5°C° 0.1 mm 2 mps 730 mmHg 97%
05:00 -2°C° 0.3 mm 1 mps 730 mmHg 97%
06:00 -2°C° 0.3 mm 1 mps 730 mmHg 97%
07:00 -2°C° 0.3 mm 1 mps 730 mmHg 97%
08:00 -1°C° 0.4 mm 1 mps 730 mmHg 96%
09:00 -1°C° 0.4 mm 2 mps 730 mmHg 95%
10:00 +1°C° 0.4 mm 2 mps 731 mmHg 95%
11:00 +1°C° 0.4 mm 2 mps 730 mmHg 95%
12:00 +2°C° 0.4 mm 2 mps 730 mmHg 95%
13:00 +2°C° 0.4 mm 3 mps 730 mmHg 94%
14:00 +1°C° 0.1 mm 3 mps 730 mmHg 95%
15:00 0°C° 0.1 mm 3 mps 730 mmHg 95%
16:00 -1°C° 0.1 mm 3 mps 730 mmHg 96%
17:00 -2°C° 0 mm 2 mps 731 mmHg 96%
18:00 -2°C° 0 mm 2 mps 731 mmHg 96%
19:00 -3°C° 0 mm 2 mps 732 mmHg 97%
20:00 -3°C° 0 mm 2 mps 732 mmHg 97%
21:00 -2°C° 0 mm 1 mps 733 mmHg 97%
22:00 -2°C° 0 mm 1 mps 733 mmHg 97%
23:00 -3°C° 0 mm 1 mps 733 mmHg 97%
Show more